Location: Castiglione Fibocchi
(43.5333°N, 11.7667°E)
Time: 09:28:41
(UTC+00:00)

Exosat Rocket - Pass Details

Date: 15 August 2020
Orbit: 762 x 2513 km, 72.3° (Epoch: 19 September)

Event Time Altitude Azimuth Distance (km) Brightness Sun altitude
Exits shadow 01:36:21 43° 235° (SW) 1,703 4.8 -24.3°
Maximum altitude 01:38:48 62° 295° (WNW) 1,288 4.5 -24.1°
Drops below altitude 10° 01:44:51 10° 16° (NNE) 2,659 7.2 -23.4°
Sets 01:47:03 0° 20° (NNE) 3,480 8.1 -23.1°
